Location: Gloden
(48.4833°N, 15.3167°E)
Time: 19:37:47
(UTC+00:00)

CUTE-I - Visible Passes

Search period start: 01 December 2021 00:00
Search period end: 11 December 2021 00:00
Orbit: 811 x 824 km, 98.7° (Epoch: 01 December)

Date Brightness Start Highest point End Pass type
(mag) Time Alt. Az. Time Alt. Az. Time Alt. Az.
01 Dec ? 05:17:06 10° NNE 05:22:29 66° ESE 05:27:49 10° S visible
01 Dec ? 16:42:49 10° S 16:48:04 56° W 16:53:21 10° NNW visible
02 Dec ? 04:55:41 10° NNE 05:00:50 44° E 05:05:56 10° S visible
02 Dec ? 16:21:06 10° SSE 16:26:27 83° WSW 16:31:51 10° NNW visible
02 Dec ? 18:04:56 10° WSW 18:07:19 13° W 18:09:42 10° WNW visible
03 Dec ? 04:34:25 10° NE 04:39:06 30° E 04:43:46 10° SSE visible
03 Dec ? 15:59:37 10° SSE 16:04:54 68° ENE 16:10:15 10° N visible
03 Dec ? 17:41:37 10° SW 17:45:27 20° W 17:49:18 10° NW visible
04 Dec ? 04:13:25 10° NE 04:17:20 20° E 04:21:13 10° SE visible
04 Dec ? 05:52:29 10° N 05:57:51 67° WNW 06:03:10 10° SSW visible
04 Dec ? 15:38:23 10° SE 15:43:26 46° ENE 15:48:33 10° N visible
04 Dec ? 17:19:02 10° SSW 17:23:39 29° W 17:28:18 10° NW visible
05 Dec ? 03:52:58 10° ENE 03:55:27 13° E 03:57:56 10° ESE visible
05 Dec ? 05:30:53 10° NNE 05:36:18 84° ESE 05:41:41 10° SSW visible
05 Dec ? 16:56:51 10° S 17:01:56 43° W 17:07:03 10° NNW visible
06 Dec ? 05:09:22 10° NNE 05:14:42 57° E 05:19:59 10° S visible
06 Dec ? 16:34:58 10° S 16:40:16 65° WSW 16:45:38 10° NNW visible
07 Dec ? 04:48:01 10° NNE 04:53:02 38° E 04:58:00 10° SSE visible
07 Dec ? 16:13:21 10° SSE 16:18:41 86° ENE 16:24:05 10° NNW visible
07 Dec ? 17:56:24 10° WSW 17:59:26 15° W 18:02:29 10° NW visible
08 Dec ? 04:26:49 10° NE 04:31:17 26° E 04:35:42 10° SSE visible
08 Dec ? 15:51:56 10° SSE 15:57:10 59° ENE 16:02:27 10° N visible
08 Dec ? 17:33:25 10° SW 17:37:35 23° W 17:41:47 10° NW visible
09 Dec ? 04:05:57 10° NE 04:09:27 17° E 04:12:56 10° SE visible
09 Dec ? 05:44:42 10° NNE 05:50:06 77° WNW 05:55:28 10° SSW visible
09 Dec ? 17:11:00 10° SSW 17:15:48 34° W 17:20:40 10° NNW visible
10 Dec ? 03:46:02 10° ENE 03:47:34 11° E 03:49:05 10° E visible
10 Dec ? 05:23:07 10° NNE 05:28:33 73° ESE 05:33:54 10° S visible
10 Dec ? 16:48:56 10° S 16:54:07 50° W 16:59:22 10° NNW visible
